Location: Unspecified
(52.0000°N, 4.4000°E)
Time: 09:28:27
(UTC+00:00)

ATLAS 3B R/B - Pass Details

Date: 14 May 2025
Orbit: 935 x 1258 km, 63.8° (Epoch: 23 June)

Event Time Altitude Azimuth Distance (km) Brightness Sun altitude
Exits shadow 23:36:12 29° 166° (SSE) 2,034 3.6 -19.1°
Maximum altitude 23:39:23 42° 118° (ESE) 1,656 3.5 -19.1°
Drops below altitude 10° 23:46:36 10° 51° (NE) 3,230 5.8 -19.1°
Sets 23:49:35 0° 45° (NE) 4,215 6.6 -19.1°
